[[{"header":{"parameterUnit":"m.s-1","parameterCategory":1,"la1":30.2991,"la2":30.254,"lo1":-89.0895,"lo2":-89.0444,"dy":0.0017,"dx":0.0017,"nx":28,"ny":28,"refTime":"2024-06-24T09:00:00:Z","depth":0,"parameterNumber":2,"parameterNumberName":"U-component_of_WINDS"},"data":[0,0,0,0,0,0,0,0,0,0,0,0,0,0,0,0,0,0,0,0,0,0,0,0,0,0,0,0,0,0,0,0,0,0,0,0,0,0,0,0,0,0,0,0,0,0,0,0,0,0,0,0,0,0,0,0,0,0,1.6851,1.6852,0,1.6906,1.6907,1.6908,1.6817,1.6814,1.6811,1.6808,1.6874,1.6879,1.6883,0,0,0,0,0,0,0,0,0,0,0,0,0,1.6675,1.6679,1.6851,1.6852,1.6852,1.6906,1.6907,1.6908,1.6818,1.6814,1.681,1.6807,1.6873,1.6878,1.6884,0,0,0,0,0,0,0,0,0,0,0,0,0,1.6743,1.668,1.6851,1.6814,1.6811,1.6906,1.6907,1.6908,1.6819,1.6814,1.6809,1.6805,1.6871,1.6878,1.6885,1.7022,0,0,1.6906,1.6909,0,0,0,0,0,0,0,0,1.674,1.675,1.6818,1.6816,1.6813,1.685,1.6869,1.6947,1.682,1.6816,1.6808,1.6803,1.6871,1.6877,1.6898,1.7025,1.7028,1.6907,1.6911,1.6914,1.6916,0,0,0,0,0,0,0,1.6735,1.6747,1.6873,1.682,1.6817,1.6797,1.6801,1.6884,1.6869,1.6816,1.6809,1.6817,1.6868,1.6892,1.6899,1.7029,1.6906,1.6913,1.6917,1.692,1.7272,1.7277,0,0,0,0,0,0,1.6734,1.6744,1.6871,1.6875,1.6764,1.6804,1.6809,1.6843,1.6868,1.6867,1.6821,1.6812,1.6882,1.6891,1.6901,1.7064,1.6914,1.692,1.6924,1.7267,1.7273,1.7278,0,0,0,0,0,0,1.673,1.6746,1.6869,1.6807,1.6822,1.6812,1.6851,1.6847,1.687,1.6871,1.6869,1.6847,1.6879,1.6891,1.6992,1.7065,1.6924,1.693,1.7261,1.7269,1.7276,1.7391,0,0,0,0,0,0,1.6726,1.6745,1.6795,1.6809,1.6825,1.6957,1.6855,1.6851,1.6881,1.6871,1.6895,1.6895,1.6876,1.6982,1.6999,1.7072,1.6935,1.7254,1.7264,1.7273,1.7381,1.7402,1.742,0,0,0,0,0,1.672,1.6827,1.6798,1.6814,1.6887,1.6961,1.6971,1.6944,1.6887,1.6939,1.694,1.6894,1.7054,1.6993,1.7011,1.7088,1.7249,1.7261,1.7272,1.7372,1.7398,1.742,0,0,0,0,0,0,1.6826,1.6829,1.6796,1.6911,1.6936,1.6946,1.701,1.6972,1.7016,1.7005,1.6973,1.6979,1.7087,1.7097,1.7029,1.7223,1.7143,1.7159,1.7212,1.7237,1.7256,1.7252,1.6941,0,0,0,0,0,1.6862,1.6919,1.6919,1.7021,1.7035,1.7021,1.7052,1.7029,1.7055,1.7066,1.7074,1.7104,1.716,1.7199,1.7251,1.7381,1.7387,1.7443,1.7463,1.7479,1.7494,1.7565,1.7591,1.7316,1.7316,1.7316,0,0,1.6939,1.6947,1.6986,1.7042,1.7059,1.7122,1.703,1.71,1.7147,1.7077,1.7172,1.718,1.7211,1.7327,1.7379,1.7339,1.757,1.7494,1.7506,1.7513,1.758,1.7606,1.7629,1.7324,1.7323,1.7322,0,0,1.711,1.7121,1.7207,1.7225,1.7251,1.724,1.7261,1.7276,1.7278,1.7371,1.7321,1.7377,1.7475,1.75,1.7525,1.7705,1.7666,1.7723,1.7827,1.7896,1.7918,1.7937,1.8003,1.8027,1.7738,1.7738,1.7738,0,1.7203,1.7293,1.7258,1.7331,1.7359,1.7294,1.7383,1.7403,1.7446,1.7468,1.7421,1.7543,1.7559,1.7681,1.7725,1.7747,1.7772,1.7722,1.7917,1.7936,1.7953,1.8016,1.8041,1.7745,1.7744,1.7743,1.7743,0,1.7407,1.747,1.7537,1.7576,1.7611,1.7692,1.7672,1.7712,1.7686,1.7681,1.7779,1.7796,1.7851,1.7877,1.7854,1.7997,1.7971,1.7922,1.7841,1.7987,1.8046,1.8069,1.7755,1.7752,1.775,1.7749,0,0,1.7649,1.7666,1.7692,1.771,1.7732,1.7782,1.7861,1.7911,1.7947,1.7979,1.8046,1.813,1.8084,1.8113,1.8091,1.8152,1.8296,1.8095,1.8095,1.8133,1.8456,1.8495,1.8523,1.8268,1.8273,1.8276,1.8454,0,1.7821,1.7954,1.7925,1.8057,1.8116,1.8055,1.8124,1.8147,1.8145,1.8197,1.8195,1.8256,1.8189,1.8207,1.8264,1.8266,1.8361,1.8252,1.8334,1.8337,1.833,1.8554,1.8595,1.8762,1.8477,1.8481,1.8484,0,1.804,1.8077,1.8214,1.8228,1.8251,1.8314,1.8358,1.8407,1.8433,1.8427,1.8458,1.8425,1.8506,1.8422,1.8535,1.8462,1.8493,1.8499,1.8505,1.8514,1.8421,1.8571,1.8815,1.8841,1.8519,1.8516,1.8514,0,1.8206,1.829,1.8383,1.8399,1.8417,1.8462,1.8472,1.8492,1.8525,1.8565,1.8586,1.8635,1.8664,1.8704,1.8686,1.8626,1.8803,1.8717,1.8803,1.8804,1.8845,1.8843,1.91,1.8861,1.8861,1.8861,1.886,0,1.8403,1.849,1.8457,1.8515,1.8611,1.8577,1.8674,1.8678,1.8696,1.8756,1.8707,1.8764,1.8735,1.8791,1.8777,1.8874,1.8887,1.8886,1.8882,1.8892,1.8892,1.8914,1.8903,1.8867,1.8866,1.8864,1.8863,0,1.8605,1.8586,1.8684,1.8691,1.8695,1.8767,1.8774,1.8829,1.8822,1.8898,1.8914,1.8904,1.8967,1.8952,1.9022,1.9013,1.9135,1.9115,1.9126,1.9122,1.9209,1.9202,1.9491,1.9528,1.9264,1.9266,1.9268,0,1.8733,1.8798,1.8812,1.8846,1.8859,1.8916,1.8948,1.8917,1.8953,1.8987,1.9039,1.9097,1.9142,1.9246,1.9247,1.9301,1.9283,1.938,1.9291,1.9299,1.9287,1.9284,1.9292,1.9399,1.9402,1.9405,1.9407,0,1.8963,1.895,1.8997,1.9041,1.9079,1.9113,1.9143,1.9175,1.9146,1.919,1.9252,1.9287,1.9356,1.9416,1.9465,1.9478,1.944,1.9434,1.9457,1.947,1.9474,1.9475,1.9177,1.9429,1.9427,1.9425,1.9424,1.9423,1.9134,1.9189,1.9207,1.9261,1.9279,1.9307,1.9359,1.9358,1.9408,1.9461,1.944,1.9512,1.9537,1.9598,1.9617,1.9675,1.9638,1.9672,1.968,1.969,1.9701,1.9462,1.9684,1.9683,1.9682,1.9682,1.9681,0,1.9363,1.9371,1.942,1.9462,1.9505,1.946,1.949,1.953,1.9593,1.9618,1.9662,1.9735,1.9792,1.9797,1.9851,1.9896,1.988,1.9912,1.991,1.9914,1.973,1.9705,1.9924,1.9924,1.9924,1.9924,1.9924,1.9924,1.9487,1.9579,1.9568,1.9669,1.9677,1.9745,1.9766,1.9793,1.9813,1.9895,1.9941,1.9942,1.9959,2.0014,2.0065,2.0065,2.0089,2.0128,2.0122,1.9951,1.9927,1.9904,1.988,2.0133,2.0133,2.0301,2.0303,2.0304]},{"header":{"parameterUnit":"m.s-1","parameterCategory":1,"la1":30.2991,"la2":30.254,"lo1":-89.0895,"lo2":-89.0444,"dy":0.0017,"dx":0.0017,"nx":28,"ny":28,"refTime":"2024-06-24T09:00:00:Z","depth":0,"parameterNumber":3,"parameterNumberName":"V-component_of_WINDS"},"data":[0,0,0,0,0,0,0,0,0,0,0,0,0,0,0,0,0,0,0,0,0,0,0,0,0,0,0,0,0,0,0,0,0,0,0,0,0,0,0,0,0,0,0,0,0,0,0,0,0,0,0,0,0,0,0,0,0,0,1.9992,1.9992,0,1.997,1.997,1.997,1.9953,1.9953,1.9953,1.9953,1.9928,1.9927,1.9927,0,0,0,0,0,0,0,0,0,0,0,0,0,2.0014,2.0014,1.9992,1.9992,1.9991,1.997,1.997,1.9969,1.9953,1.9953,1.9953,1.9953,1.9928,1.9927,1.9927,0,0,0,0,0,0,0,0,0,0,0,0,0,1.9999,2.0014,1.9992,1.9981,1.998,1.997,1.997,1.9969,1.9953,1.9953,1.9953,1.9953,1.9928,1.9927,1.9927,1.9926,0,0,1.9924,1.9924,0,0,0,0,0,0,0,0,2.0,1.9999,1.9983,1.9982,1.998,1.9964,1.9968,1.9955,1.9953,1.9963,1.9953,1.9953,1.994,1.9938,1.9934,1.9924,1.9923,1.9924,1.9924,1.9923,1.9923,0,0,0,0,0,0,0,2.0001,1.9999,1.9983,1.9982,1.9981,1.9975,1.9973,1.9966,1.9953,1.9962,1.9961,1.9959,1.9939,1.9935,1.9934,1.9923,1.9924,1.9923,1.9923,1.9922,1.9906,1.9906,0,0,0,0,0,0,2.0005,2.0,1.9984,1.9982,1.999,1.9975,1.9972,1.997,1.9953,1.995,1.9959,1.9958,1.9937,1.9935,1.9933,1.9928,1.9923,1.9922,1.9922,1.9906,1.9906,1.9906,0,0,0,0,0,0,2.0005,2.0003,1.9985,1.9991,1.9988,1.9975,1.9972,1.9969,1.9965,1.9951,1.9948,1.9958,1.9936,1.9934,1.9927,1.9927,1.9922,1.9921,1.9906,1.9906,1.9906,1.9919,0,0,0,0,0,0,2.0006,2.0004,2.0005,1.9991,1.9988,1.9981,1.9972,1.9969,1.9964,1.9963,1.9949,1.9946,1.9936,1.9928,1.9926,1.9925,1.9921,1.9906,1.9906,1.9906,1.9919,1.992,1.992,0,0,0,0,0,2.0007,2.001,2.0005,2.0003,1.9989,1.9981,1.9979,1.9968,1.9964,1.9964,1.9954,1.9946,1.9927,1.9927,1.9925,1.9924,1.9906,1.9906,1.9906,1.9918,1.9919,1.992,0,0,0,0,0,0,2.0023,2.0008,2.0002,2.0001,1.9993,1.9978,1.9978,1.9971,1.9962,1.9961,1.9947,1.9944,1.9938,1.993,1.9931,1.992,1.9915,1.9915,1.9925,1.9926,1.9927,1.9929,1.992,0,0,0,0,0,2.0027,2.0023,2.0009,2.0009,2.0005,1.9992,1.9988,1.998,1.997,1.9966,1.9956,1.9945,1.9936,1.9931,1.9922,1.9917,1.9912,1.9915,1.9916,1.9917,1.9916,1.9909,1.991,1.9907,1.9907,1.9907,0,0,2.0034,2.0025,2.0024,2.0012,2.0005,1.9998,1.9989,1.9984,1.9979,1.9965,1.9958,1.9949,1.9936,1.9929,1.9925,1.9922,1.9916,1.9917,1.9918,1.9917,1.9909,1.991,1.991,1.9907,1.9907,1.9907,0,0,2.0044,2.0038,2.0036,2.0028,2.0016,2.0007,2.0006,1.9992,1.9986,1.9978,1.9967,1.9959,1.9945,1.9935,1.9928,1.993,1.9922,1.9928,1.9932,1.9926,1.9926,1.9926,1.9924,1.9924,1.9927,1.9927,1.9927,0,2.0055,2.0047,2.0036,2.003,2.0024,2.0011,2.0007,2.0,1.9985,1.998,1.9978,1.9957,1.9948,1.9936,1.9936,1.9932,1.9928,1.9929,1.9927,1.9927,1.9927,1.9925,1.9924,1.9928,1.9928,1.9928,1.9928,0,2.0058,2.0053,2.0052,2.0038,2.0032,2.0027,2.0013,2.0008,1.9999,1.999,1.9979,1.9967,1.9954,1.9951,1.9943,1.9937,1.9935,1.993,1.9925,1.9928,1.9925,1.9925,1.9929,1.9929,1.9928,1.9928,0,0,2.008,2.0058,2.0058,2.005,2.0034,2.0028,2.0021,2.0009,2.0003,1.9993,1.9985,1.9971,1.9965,1.9957,1.9948,1.9942,1.994,1.9937,1.9936,1.9936,1.9929,1.9932,1.9932,1.9934,1.9934,1.9934,1.9929,0,2.0086,2.0075,2.0063,2.0054,2.0047,2.0033,2.0026,2.0014,2.0004,1.9995,1.9983,1.9973,1.9967,1.9961,1.9955,1.9942,1.9938,1.9942,1.9924,1.9924,1.9927,1.9931,1.9935,1.9931,1.9928,1.9928,1.9928,0,2.0092,2.0082,2.0073,2.0055,2.0051,2.0046,2.0031,2.0023,2.0008,2.0,1.999,1.9979,1.9968,1.9964,1.9947,1.995,1.9941,1.9933,1.9933,1.993,1.9926,1.9926,1.993,1.9929,1.9927,1.9927,1.9927,0,2.0106,2.009,2.0081,2.0075,2.0054,2.005,2.0041,2.0026,2.0018,2.0004,1.9998,1.9984,1.9975,1.9963,1.9948,1.9947,1.9931,1.9926,1.9922,1.9923,1.992,1.992,1.992,1.9916,1.9916,1.9916,1.9916,0,2.0113,2.0108,2.0087,2.0081,2.0073,2.0058,2.005,2.004,2.0026,2.0016,2.0003,1.9994,1.9975,1.9962,1.995,1.9936,1.9932,1.9924,1.9921,1.9925,1.9926,1.9919,1.9918,1.9916,1.9916,1.9916,1.9916,0,2.0127,2.0113,2.0103,2.0083,2.0078,2.0073,2.0055,2.0048,2.0036,2.0023,2.002,2.0,1.9985,1.9968,1.9947,1.9938,1.9924,1.992,1.993,1.9927,1.9924,1.9923,1.9919,1.9916,1.9916,1.9916,1.9916,0,2.0132,2.0128,2.0107,2.01,2.0091,2.008,2.0071,2.0055,2.0046,2.0026,2.0021,2.0004,1.999,1.9965,1.9948,1.9931,1.9925,1.9925,1.9923,1.9926,1.9923,1.9923,1.9921,1.9925,1.9926,1.9926,1.9926,0,2.0142,2.0134,2.0123,2.0108,2.0098,2.0086,2.0072,2.0067,2.0047,2.0037,2.0021,2.001,1.9988,1.997,1.995,1.9939,1.9928,1.9926,1.9924,1.9928,1.9932,1.9928,1.993,1.9927,1.9926,1.9926,1.9926,1.9926,2.015,2.0144,2.0128,2.0114,2.0102,2.009,2.0081,2.0067,2.0054,2.0035,2.0026,2.0009,1.999,1.9962,1.995,1.9935,1.9932,1.9929,1.9928,1.9928,1.9927,1.9936,1.9931,1.9931,1.9931,1.9931,1.9931,0,2.0157,2.0145,2.0133,2.0115,2.0103,2.0095,2.0079,2.0069,2.0055,2.0039,2.0025,2.0004,1.9986,1.9967,1.9947,1.9938,1.9933,1.9934,1.9934,1.993,1.9933,1.9936,1.9938,1.9938,1.9938,1.9938,1.9938,1.9938,2.0159,2.0148,2.0138,2.0118,2.0106,2.009,2.0081,2.0068,2.0055,2.0033,2.0018,2.0006,1.9987,1.9965,1.9947,1.9942,1.9934,1.9936,1.9929,1.9931,1.9931,1.993,1.9933,1.9935,1.9935,1.9928,1.9928,1.9928]}]]